• In Hungary
  • List of Countries
  • For 7 days
  • Water Temperature
  • Satellite Maps
  • Weather Map
  • News
  • Weather Widgets
  • user-avatar
    Login

    Hourly Weather San Juan

    Today, 23 November, Thursday

    Time Temperature Precipitation Wind Pressure Humidity
    00:00 +27°C° 0 mm 3 mps 702 mmHg 23%
    01:00 +26°C° 0 mm 3 mps 702 mmHg 24%
    02:00 +25°C° 0 mm 3 mps 702 mmHg 23%
    03:00 +25°C° 0 mm 3 mps 702 mmHg 23%
    04:00 +24°C° 0 mm 3 mps 702 mmHg 22%
    05:00 +26°C° 0 mm 2 mps 702 mmHg 20%
    06:00 +28°C° 0 mm 2 mps 702 mmHg 17%
    07:00 +30°C° 0 mm 2 mps 703 mmHg 14%
    08:00 +31°C° 0 mm 2 mps 703 mmHg 13%
    09:00 +33°C° 0 mm 3 mps 703 mmHg 11%
    10:00 +35°C° 0 mm 3 mps 703 mmHg 9%
    11:00 +35°C° 0 mm 4 mps 702 mmHg 9%
    12:00 +36°C° 0 mm 4 mps 702 mmHg 8%
    13:00 +37°C° 0 mm 4 mps 702 mmHg 8%
    14:00 +37°C° 0 mm 4 mps 701 mmHg 8%
    15:00 +37°C° 0 mm 5 mps 701 mmHg 8%
    16:00 +37°C° 0 mm 5 mps 701 mmHg 8%
    17:00 +36°C° 0 mm 6 mps 701 mmHg 10%
    18:00 +34°C° 0 mm 7 mps 702 mmHg 12%
    19:00 +33°C° 0 mm 8 mps 702 mmHg 14%
    20:00 +31°C° 0 mm 8 mps 703 mmHg 16%
    21:00 +28°C° 0 mm 8 mps 704 mmHg 18%
    22:00 +27°C° 0 mm 8 mps 705 mmHg 20%
    23:00 +26°C° 0 mm 7 mps 705 mmHg 21%

    Tomorrow, 24 November, Friday

    Time Temperature Precipitation Wind Pressure Humidity
    00:00 +24°C° 0 mm 6 mps 704 mmHg 22%
    01:00 +23°C° 0 mm 6 mps 704 mmHg 22%
    02:00 +22°C° 0 mm 5 mps 704 mmHg 27%
    03:00 +21°C° 0 mm 5 mps 704 mmHg 31%
    04:00 +20°C° 0 mm 4 mps 704 mmHg 36%
    05:00 +20°C° 0 mm 4 mps 704 mmHg 34%
    06:00 +21°C° 0 mm 4 mps 704 mmHg 33%
    07:00 +22°C° 0 mm 4 mps 704 mmHg 31%
    08:00 +23°C° 0 mm 4 mps 704 mmHg 29%
    09:00 +26°C° 0 mm 4 mps 704 mmHg 26%
    10:00 +27°C° 0 mm 5 mps 704 mmHg 23%
    11:00 +28°C° 0 mm 5 mps 704 mmHg 21%
    12:00 +29°C° 0 mm 5 mps 704 mmHg 19%
    13:00 +30°C° 0 mm 5 mps 703 mmHg 17%
    14:00 +30°C° 0 mm 5 mps 703 mmHg 17%
    15:00 +32°C° 0 mm 5 mps 703 mmHg 16%
    16:00 +32°C° 0 mm 5 mps 703 mmHg 15%
    17:00 +30°C° 0 mm 4 mps 703 mmHg 17%
    18:00 +29°C° 0 mm 4 mps 704 mmHg 18%
    19:00 +28°C° 0 mm 3 mps 705 mmHg 20%
    20:00 +27°C° 0 mm 3 mps 705 mmHg 21%
    21:00 +26°C° 0 mm 2 mps 706 mmHg 23%
    22:00 +26°C° 0 mm 2 mps 707 mmHg 24%
    23:00 +25°C° 0 mm 1 mps 706 mmHg 25%

    Day after tomorrow, 25 November, Saturday

    Time Temperature Precipitation Wind Pressure Humidity
    00:00 +25°C° 0 mm 1 mps 706 mmHg 26%
    01:00 +24°C° 0 mm 1 mps 706 mmHg 26%
    02:00 +24°C° 0 mm 1 mps 706 mmHg 28%
    03:00 +23°C° 0 mm 1 mps 706 mmHg 30%
    04:00 +23°C° 0 mm 1 mps 706 mmHg 31%
    05:00 +24°C° 0 mm 1 mps 707 mmHg 29%
    06:00 +25°C° 0 mm 1 mps 707 mmHg 26%
    07:00 +27°C° 0 mm 1 mps 708 mmHg 24%
    08:00 +28°C° 0 mm 1 mps 708 mmHg 22%
    09:00 +29°C° 0 mm 2 mps 708 mmHg 20%
    10:00 +31°C° 0 mm 2 mps 707 mmHg 18%
    11:00 +32°C° 0 mm 2 mps 707 mmHg 17%
    12:00 +34°C° 0 mm 2 mps 706 mmHg 15%
    13:00 +35°C° 0 mm 3 mps 705 mmHg 14%
    14:00 +35°C° 0 mm 3 mps 705 mmHg 14%
    15:00 +35°C° 0 mm 3 mps 704 mmHg 14%
    16:00 +35°C° 0 mm 3 mps 704 mmHg 14%
    17:00 +34°C° 0 mm 3 mps 704 mmHg 16%
    18:00 +33°C° 0 mm 3 mps 705 mmHg 18%
    19:00 +31°C° 0 mm 3 mps 705 mmHg 20%
    20:00 +30°C° 0 mm 3 mps 705 mmHg 24%
    21:00 +29°C° 0 mm 4 mps 705 mmHg 27%
    22:00 +29°C° 0 mm 4 mps 706 mmHg 31%
    23:00 +28°C° 0 mm 4 mps 705 mmHg 32%

    26 November, Sunday

    Time Temperature Precipitation Wind Pressure Humidity
    00:00 +27°C° 0 mm 4 mps 705 mmHg 34%
    01:00 +27°C° 0 mm 4 mps 704 mmHg 36%
    02:00 +26°C° 0 mm 4 mps 704 mmHg 37%
    03:00 +26°C° 0 mm 4 mps 703 mmHg 38%
    04:00 +25°C° 0 mm 3 mps 703 mmHg 38%
    05:00 +27°C° 0 mm 4 mps 703 mmHg 35%
    06:00 +28°C° 0 mm 4 mps 703 mmHg 32%
    07:00 +29°C° 0 mm 4 mps 703 mmHg 29%
    08:00 +32°C° 0 mm 5 mps 703 mmHg 25%
    09:00 +33°C° 0 mm 5 mps 702 mmHg 22%
    10:00 +35°C° 0 mm 5 mps 702 mmHg 19%
    11:00 +36°C° 0 mm 5 mps 701 mmHg 16%
    12:00 +37°C° 0 mm 4 mps 700 mmHg 13%
    13:00 +38°C° 0 mm 4 mps 700 mmHg 11%
    14:00 +38°C° 0 mm 4 mps 699 mmHg 11%
    15:00 +38°C° 0 mm 4 mps 699 mmHg 12%
    16:00 +38°C° 0 mm 4 mps 698 mmHg 12%
    17:00 +36°C° 0.1 mm 3 mps 699 mmHg 14%
    18:00 +35°C° 0.1 mm 3 mps 699 mmHg 16%
    19:00 +34°C° 0.1 mm 3 mps 700 mmHg 19%
    20:00 +33°C° 0.1 mm 3 mps 700 mmHg 21%
    21:00 +31°C° 0.1 mm 3 mps 701 mmHg 23%
    22:00 +30°C° 0.1 mm 3 mps 702 mmHg 26%
    23:00 +29°C° 0 mm 2 mps 702 mmHg 28%

    27 November, Monday

    Time Temperature Precipitation Wind Pressure Humidity
    00:00 +29°C° 0 mm 2 mps 702 mmHg 30%
    01:00 +28°C° 0 mm 2 mps 702 mmHg 33%
    02:00 +27°C° 0.3 mm 5 mps 703 mmHg 35%
    03:00 +26°C° 0.3 mm 9 mps 704 mmHg 36%
    04:00 +24°C° 0.3 mm 12 mps 705 mmHg 38%
    05:00 +24°C° 0 mm 12 mps 707 mmHg 34%
    06:00 +23°C° 0 mm 12 mps 708 mmHg 29%
    07:00 +23°C° 0 mm 12 mps 709 mmHg 25%
    08:00 +23°C° 0 mm 11 mps 709 mmHg 27%
    09:00 +23°C° 0 mm 10 mps 710 mmHg 30%
    10:00 +23°C° 0 mm 9 mps 710 mmHg 32%
    11:00 +24°C° 0 mm 9 mps 709 mmHg 30%
    12:00 +26°C° 0 mm 9 mps 709 mmHg 29%
    13:00 +26°C° 0 mm 8 mps 709 mmHg 27%
    14:00 +26°C° 0 mm 8 mps 708 mmHg 26%
    15:00 +26°C° 0 mm 7 mps 708 mmHg 25%
    16:00 +27°C° 0 mm 7 mps 708 mmHg 24%
    17:00 +26°C° 0 mm 6 mps 709 mmHg 25%
    18:00 +25°C° 0 mm 5 mps 709 mmHg 26%
    19:00 +23°C° 0 mm 4 mps 710 mmHg 27%
    20:00 +22°C° 0 mm 3 mps 710 mmHg 28%
    21:00 +22°C° 0 mm 3 mps 711 mmHg 28%
    22:00 +21°C° 0 mm 2 mps 711 mmHg 29%
    23:00 +21°C° 0 mm 2 mps 710 mmHg 30%

    28 November, Tuesday

    Time Temperature Precipitation Wind Pressure Humidity
    00:00 +21°C° 0 mm 1 mps 710 mmHg 30%
    01:00 +20°C° 0 mm 1 mps 709 mmHg 31%
    02:00 +20°C° 0 mm 1 mps 709 mmHg 32%
    03:00 +20°C° 0 mm 1 mps 709 mmHg 33%
    04:00 +19°C° 0 mm 1 mps 709 mmHg 33%
    05:00 +20°C° 0 mm 1 mps 709 mmHg 32%
    06:00 +22°C° 0 mm 1 mps 709 mmHg 30%
    07:00 +23°C° 0 mm 1 mps 709 mmHg 29%
    08:00 +24°C° 0 mm 2 mps 709 mmHg 28%
    09:00 +26°C° 0 mm 2 mps 708 mmHg 27%
    10:00 +27°C° 0 mm 3 mps 708 mmHg 27%
    11:00 +29°C° 0 mm 3 mps 707 mmHg 25%
    12:00 +30°C° 0 mm 3 mps 706 mmHg 23%
    13:00 +31°C° 0 mm 3 mps 706 mmHg 21%
    14:00 +31°C° 0 mm 3 mps 705 mmHg 20%
    15:00 +31°C° 0 mm 3 mps 705 mmHg 20%
    16:00 +32°C° 0 mm 2 mps 705 mmHg 19%
    17:00 +31°C° 0 mm 2 mps 705 mmHg 21%
    18:00 +30°C° 0 mm 2 mps 706 mmHg 22%
    19:00 +29°C° 0 mm 2 mps 706 mmHg 24%
    20:00 +28°C° 0 mm 3 mps 706 mmHg 26%
    21:00 +27°C° 0 mm 3 mps 707 mmHg 29%
    22:00 +26°C° 0 mm 3 mps 707 mmHg 31%
    23:00 +25°C° 0 mm 3 mps 706 mmHg 33%
    Show more